Vertical_Velocity
-5 3 -0 -5 -6 -1 0 -3 -1 6 -2 2 -4 2 -0 -2 -3 -2 -3 0 -2 -2 0 -1 4 4 -1 0 0 -4 -1 -2 -0 6 -8 3 -2 -4 7 -2 -0 -0 10
-1 2 -3 2 1 -2 -4 -4 -1 -2 0 -0 1 -1 -1 -3 -2 -3 -3 -0 -2 -5 0 2 6 -4 -5 -4 -1 -0 -1 2 2 -12 8 5 -11 3 0 -0 -5 5 -1
3 1 5 -3 -5 -1 -4 -0 -0 -0 -1 1 0 -1 -1 -3 -1 -3 -3 -0 -1 -2 1 2 2 -1 -5 6 -5 2 -3 -2 -3 7 2 -5 5 6 6 -4 -4 -3 -5
5 1 -3 -6 -6 0 2 -1 -2 0 -1 1 -1 -2 -4 0 -1 -3 -3 -1 -2 -4 -1 2 5 -5 -1 2 -4 5 1 -8 1 -1 2 2 -2 8 -6 5 11 5 -5
-3 1 -8 3 6 4 -1 -0 5 1 0 3 3 2 0 -0 -4 -5 -2 -0 -2 -2 0 3 1 -3 1 1 1 -6 -2 2 -1 -1 2 2 -2 -0 -1 -1 9 1 4
2 -4 9 5 6 2 3 -3 2 5 3 2 -1 -2 -3 -7 -15 -9 -4 -4 -3 -2 -5 1 5 -3 0 0 -3 -1 -0 -1 -8 3 1 2 -1 -2 -5 -5 7 8 6
-1 0 -4 -1 -3 1 7 -2 -7 -4 -1 -7 -1 -3 -5 -2 4 2 1 -1 -1 3 0 6 1 1 -1 1 4 3 -1 2 3 -3 -8 -3 8 5 -0 3 -4 2 -1
1 -1 -6 -0 6 7 -2 -3 3 3 -3 -2 4 6 1 -7 -3 -3 2 10 10 7 5 5 3 1 -9 2 0 1 4 1 -6 -3 -11 -6 6 -2 -3 3 -4 -2 -6
-3 -2 2 1 -5 -5 -7 -0 6 -1 -1 -0 4 -1 -8 -5 -3 1 11 5 4 -2 -3 -1 2 -2 2 -1 -0 -1 -1 1 6 0 -5 -1 1 -1 -4 2 -0 1 1
3 10 3 6 -1 -7 5 -2 3 -2 1 -1 -5 -5 5 1 -2 3 10 10 -2 -5 -4 -0 0 2 1 0 2 1 -1 -2 -6 2 -2 -8 -1 5 -4 0 3 -3 2
-1 -0 -1 -2 -0 4 4 2 4 3 6 -2 1 3 2 -1 -3 4 8 2 2 -2 -0 3 -2 -2 4 -1 4 -2 -1 13 -3 7 3 -1 -1 -0 -1 0 -4 -3 -2
-0 -0 1 3 3 2 -0 4 4 -1 0 -0 0 -2 -5 -3 -2 -7 3 4 10 -3 -7 -1 -8 -8 3 -1 -8 -1 10 -3 4 -6 -1 7 -5 -0 0 1 -6 3 -6
1 2 1 -0 0 3 4 2 0 4 -1 2 2 0 -6 2 -2 -2 7 4 4 8 17 0 3 3 7 7 4 1 3 6 7 -1 -5 2 -6 12 2 -4 -4 -0 -5
2 1 -0 3 1 3 4 3 0 1 1 -0 5 -3 7 10 10 11 -3 10 6 9 4 11 -1 3 4 5 -3 -1 -25 -4 -1 9 -5 4 -2 3 -3 -2 1 -5 -1
4 3 2 0 0 3 -3 4 -0 -1 1 0 -7 1 -5 -4 -9 -0 4 -7 10 11 11 4 4 4 4 4 1 -3 -12 -8 -3 -12 -1 9 -2 7 -4 -3 1 -3 -3
-0 1 5 4 4 0 1 1 -9 -4 9 -0 -1 -0 5 -1 -1 3 -1 6 2 -1 13 5 5 -1 1 -2 -9 3 3 -8 -7 -6 5 -2 2 2 -4 1 -1 -6 2
-1 -0 2 -0 3 3 2 5 4 13 2 2 4 5 3 4 11 9 0 6 3 8 4 12 -2 2 -10 -29 6 -9 8 -2 -6 4 3 0 7 -3 -9 5 -5 -4 1
-1 -2 -1 -1 -3 -2 -0 -2 -4 -3 -4 -3 4 2 4 13 16 2 1 21 23 23 2 10 -0 -8 9 -3 -30 -8 0 -3 6 1 1 4 3 -4 -1 -2 1 -2 2
4 2 2 1 1 2 1 1 -0 -3 -6 -1 -3 4 -9 3 18 19 8 10 6 7 -7 -1 4 5 9 3 8 1 -21 3 -3 -7 -1 3 2 4 -3 0 6 -3 0
-0 -1 -3 2 -1 -1 -3 -1 -2 3 -0 -1 -4 -8 -7 -8 -10 -2 84 50 23 3 1 2 1 1 -6 -3 0 -7 2 -2 -5 0 0 1 -2 -2 -2 -0 2 4 -8
-0 -2 -3 -4 -3 -1 2 3 -2 1 -1 1 2 -2 12 5 -12 -10 4 -29 73 53 5 -1 6 9 7 12 -10 4 -12 -7 6 0 -2 -1 -4 -1 -3 -1 -1 -0 1
7 2 -1 -1 -1 -5 -3 -1 1 1 -3 4 10 -1 -7 2 -9 -0 -5 -25 -16 3 1 2 -3 -3 -3 -10 10 -11 -11 6 -1 -1 -1 -3 -2 -2 -0 -3 -2 -2 1
7 4 -3 -2 1 -1 2 0 -9 -1 0 -0 2 -1 -3 -4 -2 5 2 -4 7 3 5 4 9 -6 9 10 1 -6 2 -3 -4 -3 -3 -0 -0 -2 -0 -2 -1 1 -0
1 -4 -3 5 2 0 2 8 -6 -0 1 0 -2 0 3 -2 8 5 12 2 7 4 -5 -4 4 5 -3 4 2 -3 -3 1 -1 -0 -0 -4 -6 1 -4 1 -2 -2 3
-4 1 -2 -0 2 -1 2 -2 -0 -2 -2 -5 2 2 3 2 5 5 2 6 -1 0 -1 4 4 8 2 -5 -6 -7 9 -6 -3 4 -7 2 -2 3 -5 2 2 5 -2
-0 0 -1 4 -2 -5 -1 3 -0 2 1 -7 -3 -1 3 7 -2 1 3 1 9 6 10 7 -3 -4 -6 -2 -3 8 -7 -3 -6 -8 -1 -0 -1 -5 -4 -3 -0 -0 1
Height
1494 1499 1504 1509 1515 1520 1524 1528 1533 1538 1541 1545 1547 1551 1553 1556 1559 1561 1564 1567 1566 1568 1569 1570 1572 1575 1578 1580 1579 1581 1582 1582 1582 1582 1583 1583 1584 1586 1586 1584 1585 1585 1586
1481 1488 1493 1500 1505 1509 1513 1519 1524 1529 1533 1537 1541 1545 1547 1549 1552 1554 1557 1560 1560 1562 1563 1566 1567 1569 1571 1572 1575 1576 1578 1578 1580 1579 1580 1580 1580 1582 1581 1582 1582 1583 1584
1473 1478 1483 1488 1494 1497 1502 1509 1514 1519 1523 1528 1531 1535 1538 1541 1544 1547 1550 1553 1555 1556 1558 1560 1562 1563 1565 1567 1569 1572 1573 1575 1573 1576 1575 1576 1577 1577 1578 1578 1578 1579 1578
1465 1468 1471 1475 1479 1485 1492 1498 1504 1509 1514 1518 1522 1526 1530 1533 1537 1539 1542 1545 1547 1549 1551 1553 1555 1556 1560 1562 1563 1566 1568 1570 1572 1573 1573 1575 1574 1576 1574 1575 1574 1573 1574
1454 1459 1458 1462 1469 1476 1481 1487 1494 1498 1503 1509 1514 1518 1522 1525 1528 1530 1532 1536 1538 1541 1544 1546 1548 1549 1554 1557 1559 1560 1560 1563 1568 1570 1571 1569 1569 1570 1568 1568 1569 1569 1568
1445 1446 1453 1457 1460 1465 1471 1476 1482 1487 1491 1497 1501 1505 1509 1512 1515 1518 1522 1526 1529 1532 1535 1537 1541 1543 1546 1550 1552 1554 1556 1558 1562 1564 1565 1566 1566 1564 1564 1566 1565 1563 1565
1432 1440 1444 1448 1451 1456 1463 1467 1471 1476 1482 1485 1490 1494 1498 1501 1504 1506 1508 1513 1514 1519 1524 1529 1532 1534 1539 1542 1546 1548 1549 1550 1554 1558 1560 1562 1562 1561 1561 1560 1561 1560 1560
1423 1428 1434 1438 1443 1451 1454 1455 1459 1464 1468 1473 1476 1481 1487 1488 1493 1497 1503 1507 1510 1513 1518 1522 1525 1529 1530 1534 1538 1539 1541 1542 1544 1548 1551 1554 1555 1557 1556 1556 1555 1554 1553
1413 1416 1421 1428 1435 1440 1442 1445 1450 1455 1459 1461 1465 1469 1473 1478 1482 1487 1493 1497 1501 1506 1510 1513 1516 1518 1521 1525 1528 1531 1533 1535 1535 1539 1544 1548 1548 1548 1550 1553 1551 1551 1550
1405 1411 1416 1420 1425 1428 1432 1437 1441 1445 1448 1454 1456 1457 1461 1465 1470 1474 1481 1487 1489 1492 1496 1499 1502 1506 1511 1516 1521 1523 1527 1528 1533 1533 1535 1540 1544 1542 1544 1546 1547 1547 1546
1403 1407 1410 1413 1417 1421 1425 1428 1432 1435 1441 1442 1444 1447 1450 1453 1458 1462 1466 1471 1474 1480 1486 1489 1491 1494 1502 1507 1514 1516 1519 1520 1526 1532 1530 1531 1536 1538 1538 1540 1541 1541 1542
1398 1401 1404 1407 1410 1414 1416 1420 1424 1428 1431 1434 1435 1438 1439 1440 1443 1446 1450 1457 1464 1469 1470 1475 1475 1479 1489 1495 1500 1505 1505 1515 1518 1525 1529 1527 1530 1531 1533 1532 1535 1535 1536
1392 1394 1398 1401 1405 1408 1409 1412 1416 1419 1422 1423 1425 1426 1426 1427 1428 1431 1434 1438 1447 1454 1462 1461 1461 1468 1476 1483 1490 1495 1500 1507 1511 1509 1521 1524 1525 1527 1526 1526 1528 1526 1528
1388 1391 1393 1396 1399 1402 1405 1407 1409 1411 1413 1415 1417 1417 1418 1421 1422 1420 1418 1426 1433 1443 1448 1448 1455 1462 1468 1469 1476 1484 1486 1506 1504 1510 1516 1517 1517 1520 1518 1521 1525 1523 1525
1385 1388 1390 1392 1395 1398 1399 1402 1402 1403 1405 1406 1407 1410 1411 1410 1408 1411 1409 1414 1421 1425 1425 1437 1444 1449 1456 1462 1471 1477 1480 1490 1494 1503 1509 1511 1510 1511 1513 1517 1519 1520 1521
1384 1387 1389 1391 1393 1394 1396 1396 1395 1396 1396 1397 1399 1401 1401 1397 1399 1397 1399 1405 1411 1417 1423 1425 1430 1438 1447 1451 1461 1468 1474 1479 1486 1496 1502 1503 1502 1504 1509 1511 1513 1515 1516
1381 1382 1385 1384 1387 1389 1390 1391 1392 1390 1389 1389 1390 1389 1389 1391 1387 1385 1388 1392 1396 1400 1408 1412 1414 1427 1419 1444 1447 1456 1463 1471 1483 1491 1493 1496 1497 1497 1502 1505 1507 1509 1511
1378 1378 1380 1381 1381 1382 1382 1382 1384 1384 1382 1380 1381 1378 1378 1378 1375 1378 1380 1384 1382 1385 1390 1395 1398 1410 1416 1423 1438 1448 1461 1472 1478 1485 1490 1492 1491 1492 1496 1499 1502 1504 1506
1383 1382 1381 1380 1380 1380 1381 1381 1380 1379 1376 1371 1366 1365 1364 1363 1364 1364 1360 1365 1362 1366 1379 1390 1399 1403 1411 1417 1432 1441 1449 1465 1470 1477 1485 1487 1489 1488 1493 1496 1494 1497 1500
1380 1379 1380 1381 1381 1382 1383 1383 1382 1378 1374 1369 1365 1362 1358 1356 1356 1360 1354 1336 1336 1346 1370 1380 1384 1395 1410 1419 1422 1435 1441 1455 1462 1467 1472 1477 1483 1486 1489 1490 1489 1491 1493
1381 1380 1379 1379 1379 1381 1382 1381 1380 1378 1375 1374 1370 1367 1367 1359 1356 1361 1363 1358 1320 1336 1363 1380 1389 1394 1405 1412 1421 1423 1438 1451 1456 1459 1465 1469 1474 1482 1483 1485 1487 1488 1489
1386 1380 1380 1379 1379 1381 1381 1378 1377 1376 1378 1378 1374 1368 1368 1363 1362 1357 1361 1360 1361 1371 1376 1383 1388 1398 1404 1416 1413 1416 1437 1444 1448 1453 1458 1464 1468 1473 1475 1477 1480 1481 1483
1393 1387 1385 1384 1384 1383 1381 1376 1377 1378 1375 1375 1372 1370 1370 1368 1369 1369 1367 1371 1375 1378 1383 1384 1392 1401 1407 1410 1414 1421 1431 1437 1444 1449 1455 1461 1464 1468 1469 1471 1476 1475 1478
1392 1392 1393 1391 1387 1388 1387 1383 1380 1381 1377 1378 1377 1375 1372 1373 1371 1374 1373 1374 1379 1380 1381 1390 1397 1401 1405 1410 1414 1422 1429 1435 1439 1444 1448 1454 1458 1461 1464 1467 1468 1469 1472
1398 1397 1394 1394 1390 1389 1390 1388 1386 1382 1379 1379 1381 1380 1379 1378 1377 1378 1378 1378 1381 1386 1391 1395 1399 1400 1403 1409 1415 1421 1427 1431 1437 1441 1443 1449 1453 1455 1459 1460 1461 1463 1467
1404 1403 1401 1399 1393 1395 1394 1392 1390 1386 1381 1382 1383 1382 1383 1382 1382 1382 1383 1386 1387 1390 1392 1394 1396 1400 1404 1409 1414 1418 1421 1427 1433 1438 1442 1444 1446 1449 1454 1456 1457 1457 1459